Weather History for Boonville, MO

Change the Weather History Date:

Tuesday, July 2, 2013

  Actual Average Record
Temperature  
Mean Temperature 70 °F -  
Max Temperature 96 °F 87 °F 105 °F (1980)
Min Temperature 59 °F 66 °F 53 °F (1959)
Cooling Degree Days 5    
Growing Degree Days 20 (Base 50)    
Moisture  
Dew Point 52 °F    
Average Humidity 55    
Maximum Humidity 89    
Minimum Humidity 32    
Precipitation  
Precipitation 0.02 in - - ()
Sea Level Pressure  
Sea Level Pressure 30.06 in    
Wind  
Wind Speed 7 mph (North)    
Max Wind Speed 16 mph    
Max Gust Speed 21 mph    
Visibility 10 miles    
Events Rain    
Averages and records for this station are not official NWS values.
T = Trace of Precipitation, MM = Missing Value Source: NWS Daily Summary

Daily Weather History Graph

Daily Weather History Graph

Search for Another Location

Airport:

Trip Planner

Search our weather history database for the weather conditions in past years. The results will help you decide how hot, cold, wet, or windy it might be!

Date:

Astronomy

Jul. 02, 2013 Rise Set
Actual Time 5:49 AM CDT 8:39 PM CDT
Civil Twilight 5:17 AM CDT 9:11 PM CDT
Nautical Twilight 4:37 AM CDT 9:51 PM CDT
Astronomical Twilight 3:51 AM CDT 10:37 PM CDT
Moon 1:50 AM CDT (7/2) 3:55 PM CDT (7/2)
Length of Visible Light 15h 54m
Length of Day
14h 50m
Waning Crescent, 26% of the Moon is Illuminated
Jul 2
Waning Crescent
Jul 8
New
Jul 15
First Quarter
Jul 22
Full
Jul 29
Last Quarter

Hourly Weather History & Observations

Time (CDT) Temp. Dew Point Humidity Pressure Visibility Wind Dir Wind Speed Gust Speed Precip Events Conditions
12:15 AM 64.9 °F 53.2 °F 66% 30.05 in 10.0 mi North 5.8 mph - N/A   Clear
12:35 AM 64.4 °F 53.2 °F 67% 30.05 in 10.0 mi North 6.9 mph - N/A   Clear
12:55 AM 64.2 °F 53.1 °F 67% 30.05 in 10.0 mi North 5.8 mph - N/A   Clear
1:15 AM 63.5 °F 53.1 °F 69% 30.05 in 10.0 mi North 5.8 mph - N/A   Clear
1:35 AM 63.5 °F 52.9 °F 68% 30.04 in 10.0 mi North 5.8 mph - N/A   Clear
1:55 AM 63.3 °F 52.5 °F 68% 30.04 in 10.0 mi North 5.8 mph - N/A   Clear
2:15 AM 63.1 °F 52.2 °F 67% 30.04 in 10.0 mi NNW 4.6 mph - N/A   Clear
2:35 AM 63.1 °F 52.0 °F 67% 30.04 in 10.0 mi North 5.8 mph - N/A   Clear
2:55 AM 62.8 °F 52.0 °F 68% 30.04 in 10.0 mi North 5.8 mph - N/A   Clear
3:15 AM 62.4 °F 52.0 °F 69% 30.04 in 10.0 mi North 5.8 mph - N/A   Clear
3:35 AM 61.9 °F 52.0 °F 70% 30.04 in 10.0 mi North 5.8 mph - N/A   Clear
3:55 AM 61.7 °F 52.2 °F 71% 30.04 in 10.0 mi North 5.8 mph - N/A   Clear
4:15 AM 61.2 °F 52.2 °F 72% 30.04 in 10.0 mi North 6.9 mph - N/A   Clear
4:35 AM 61.0 °F 52.2 °F 73% 30.05 in 10.0 mi North 5.8 mph - N/A   Clear
4:55 AM 61.0 °F 52.0 °F 72% 30.05 in 10.0 mi North 5.8 mph - N/A   Clear
5:15 AM 60.8 °F 51.8 °F 72% 30.05 in 10.0 mi North 5.8 mph - N/A   Clear
5:35 AM 60.4 °F 51.8 °F 73% 30.05 in 10.0 mi North 5.8 mph - N/A   Clear
5:55 AM 59.9 °F 51.8 °F 75% 30.06 in 10.0 mi North 5.8 mph - N/A   Clear
6:15 AM 60.3 °F 51.8 °F 74% 30.07 in 10.0 mi Calm Calm - N/A   Clear
6:35 AM 60.8 °F 51.8 °F 72% 30.07 in 10.0 mi NNW 3.5 mph - N/A   Clear
6:55 AM 60.8 °F 52.5 °F 74% 30.08 in 10.0 mi NW 4.6 mph - N/A   Clear
7:15 AM 61.3 °F 53.2 °F 75% 30.08 in 10.0 mi NNW 4.6 mph - N/A   Clear
7:35 AM 62.6 °F 53.2 °F 71% 30.08 in 10.0 mi NNW 5.8 mph - N/A   Clear
7:55 AM 64.0 °F 53.4 °F 68% 30.08 in 10.0 mi North 5.8 mph - N/A   Clear
8:15 AM 65.7 °F 53.4 °F 65% 30.08 in 10.0 mi North 8.1 mph - N/A   Clear
8:35 AM 66.9 °F 53.6 °F 62% 30.09 in 10.0 mi North 9.2 mph - N/A   Clear
8:55 AM 68.0 °F 53.4 °F 60% 30.09 in 10.0 mi North 9.2 mph - N/A   Clear
9:15 AM 69.1 °F 53.4 °F 57% 30.09 in 10.0 mi North 8.1 mph - N/A   Clear
9:35 AM 70.5 °F 53.4 °F 55% 30.09 in 10.0 mi North 8.1 mph - N/A   Clear
9:55 AM 72.5 °F 53.2 °F 51% 30.09 in 10.0 mi North 6.9 mph - N/A   Clear
10:15 AM 73.0 °F 52.0 °F 48% 30.09 in 10.0 mi North 12.7 mph 17.3 mph N/A   Clear
10:35 AM 73.8 °F 51.8 °F 46% 30.09 in 10.0 mi North 11.5 mph 17.3 mph N/A   Clear
10:55 AM 75.0 °F 52.2 °F 45% 30.09 in 10.0 mi North 12.7 mph 18.4 mph N/A   Clear
11:15 AM 75.4 °F 50.9 °F 42% 30.09 in 10.0 mi North 11.5 mph 18.4 mph N/A   Clear
11:35 AM 77.0 °F 51.3 °F 40% 30.09 in 10.0 mi NNE 12.7 mph 16.1 mph N/A   Clear
11:55 AM 77.5 °F 49.5 °F 37% 30.09 in 10.0 mi NNE 13.8 mph 19.6 mph N/A   Clear
12:15 PM 77.5 °F 50.2 °F 38% 30.09 in 10.0 mi North 9.2 mph 18.4 mph N/A   Clear
12:35 PM 77.2 °F 50.9 °F 40% 30.08 in 10.0 mi North 13.8 mph 19.6 mph N/A   Clear
12:55 PM 78.1 °F 50.0 °F 37% 30.08 in 10.0 mi North 16.1 mph 20.7 mph N/A   Clear
1:15 PM 79.0 °F 50.7 °F 37% 30.08 in 10.0 mi North 10.4 mph 17.3 mph N/A   Clear
1:35 PM 79.3 °F 50.4 °F 36% 30.08 in 10.0 mi North 10.4 mph 19.6 mph N/A   Clear
1:55 PM 79.7 °F 50.5 °F 36% 30.07 in 10.0 mi North 11.5 mph 18.4 mph N/A   Clear
2:15 PM 80.2 °F 49.3 °F 34% 30.07 in 10.0 mi NNE 11.5 mph 18.4 mph N/A   Scattered Clouds
2:35 PM 80.1 °F 49.3 °F 34% 30.07 in 10.0 mi North 12.7 mph 17.3 mph N/A   Scattered Clouds
2:55 PM 81.0 °F 48.7 °F 32% 30.06 in 10.0 mi North 11.5 mph 17.3 mph N/A   Scattered Clouds
3:15 PM 81.1 °F 49.8 °F 33% 30.06 in 10.0 mi North 12.7 mph 17.3 mph N/A   Scattered Clouds
3:35 PM 81.3 °F 49.8 °F 33% 30.05 in 10.0 mi North 11.5 mph 17.3 mph N/A   Scattered Clouds
3:55 PM 81.3 °F 49.5 °F 33% 30.05 in 10.0 mi NNE 10.4 mph - N/A   Mostly Cloudy
4:15 PM 81.7 °F 49.1 °F 32% 30.05 in 10.0 mi NE 9.2 mph - N/A   Mostly Cloudy
4:35 PM 81.5 °F 50.0 °F 33% 30.05 in 10.0 mi NNE 9.2 mph - N/A   Overcast
4:55 PM 78.8 °F 50.7 °F 37% 30.05 in 10.0 mi NNE 5.8 mph - N/A   Mostly Cloudy
5:15 PM 80.6 °F 50.7 °F 35% 30.05 in 10.0 mi North 8.1 mph - N/A   Mostly Cloudy
5:35 PM 81.3 °F 50.5 °F 34% 30.04 in 10.0 mi North 6.9 mph - N/A   Scattered Clouds
5:55 PM 81.0 °F 50.2 °F 34% 30.03 in 10.0 mi North 6.9 mph - N/A   Clear
6:15 PM 80.4 °F 48.9 °F 33% 30.03 in 10.0 mi North 6.9 mph - N/A   Clear
6:35 PM 79.9 °F 48.6 °F 33% 30.03 in 10.0 mi North 6.9 mph - N/A   Clear
6:55 PM 79.5 °F 49.1 °F 34% 30.04 in 10.0 mi NNE 5.8 mph - N/A   Clear
7:15 PM 78.6 °F 49.6 °F 36% 30.04 in 10.0 mi NNE 4.6 mph - N/A   Clear
7:35 PM 77.7 °F 51.1 °F 39% 30.04 in 10.0 mi Calm Calm - N/A   Clear
7:55 PM 76.8 °F 52.5 °F 43% 30.04 in 10.0 mi Calm Calm - N/A   Clear
8:15 PM 74.7 °F 53.8 °F 48% 30.04 in 10.0 mi Calm Calm - N/A   Clear
8:35 PM 72.7 °F 54.9 °F 53% 30.04 in 10.0 mi Calm Calm - N/A   Clear
8:55 PM 71.2 °F 55.2 °F 57% 30.05 in 10.0 mi Calm Calm - N/A   Scattered Clouds
9:15 PM 69.8 °F 55.6 °F 61% 30.05 in 10.0 mi Calm Calm - N/A   Scattered Clouds
9:35 PM 69.4 °F 55.6 °F 61% 30.05 in 10.0 mi Calm Calm - N/A   Mostly Cloudy
9:55 PM 68.5 °F 56.5 °F 65% 30.07 in 7.0 mi NNW 5.8 mph - 0.02 in Rain Rain
10:15 PM 67.1 °F 58.8 °F 75% 30.06 in 10.0 mi Calm Calm - N/A   Overcast
10:35 PM 65.7 °F 59.7 °F 81% 30.06 in 10.0 mi Calm Calm - N/A   Mostly Cloudy
10:55 PM 64.8 °F 61.3 °F 89% 30.06 in 10.0 mi Calm Calm - N/A   Scattered Clouds
11:15 PM 64.9 °F 60.8 °F 86% 30.05 in 10.0 mi NW 3.5 mph - N/A   Clear
11:35 PM 64.8 °F 57.4 °F 77% 30.05 in 10.0 mi NW 4.6 mph - N/A   Clear
11:55 PM 64.9 °F 55.8 °F 72% 30.05 in 10.0 mi Calm Calm - N/A   Clear